Time,TemperatureF,DewpointF,PressureIn,WindDirection,WindDirectionDegrees,WindSpeedMPH,WindSpeedGustMPH,Humidity,HourlyPrecipIn,Conditions,Clouds,dailyrainin,SoftwareType,DateUTC
2013-06-07 00:00:00,62.6,62.0,29.80,NNE,21,0.0,0.0,98,0.00,,,1.24,Wunderground v.1.15,2013-06-07 04:00:00,
2013-06-07 00:01:00,62.6,62.0,29.80,NNE,21,0.0,0.0,98,0.00,,,1.24,Wunderground v.1.15,2013-06-07 04:01:00,
2013-06-07 00:02:00,62.6,62.0,29.80,NNE,21,0.0,0.0,98,0.00,,,1.24,Wunderground v.1.15,2013-06-07 04:02:00,
2013-06-07 00:03:00,62.6,62.0,29.80,NNE,21,0.0,0.0,98,0.00,,,1.24,Wunderground v.1.15,2013-06-07 04:03:00,
2013-06-07 00:05:00,62.6,62.0,29.80,NNE,14,0.0,3.0,98,0.00,,,0.00,Wunderground v.1.15,2013-06-07 04:05:00,
2013-06-07 00:06:00,62.6,62.0,29.80,NNE,14,0.0,3.0,98,0.00,,,0.00,Wunderground v.1.15,2013-06-07 04:06:00,
2013-06-07 00:11:00,62.6,62.0,29.80,NNE,14,0.0,0.0,98,0.00,,,0.00,Wunderground v.1.15,2013-06-07 04:11:00,
2013-06-07 00:17:00,62.7,62.1,29.80,NNE,14,0.0,0.0,98,0.00,,,0.00,Wunderground v.1.15,2013-06-07 04:17:00,
2013-06-07 00:23:00,62.7,62.1,29.80,NNE,14,0.0,0.0,98,0.00,,,0.00,Wunderground v.1.15,2013-06-07 04:23:00,
2013-06-07 00:29:00,62.7,62.1,29.79,NNE,14,0.0,0.0,98,0.00,,,0.00,Wunderground v.1.15,2013-06-07 04:29:00,
2013-06-07 00:35:00,62.7,62.1,29.80,NNE,14,0.0,1.0,98,0.00,,,0.00,Wunderground v.1.15,2013-06-07 04:35:00,
2013-06-07 00:41:00,62.7,62.1,29.80,NNE,14,0.0,1.0,98,0.00,,,0.00,Wunderground v.1.15,2013-06-07 04:41:00,
2013-06-07 00:47:00,62.7,62.1,29.80,NNE,14,0.0,1.0,98,0.00,,,0.00,Wunderground v.1.15,2013-06-07 04:47:00,
2013-06-07 00:52:00,62.7,62.1,29.80,NNE,14,0.0,1.0,98,0.00,,,0.00,Wunderground v.1.15,2013-06-07 04:52:00,
2013-06-07 00:58:00,62.8,62.2,29.80,NNE,14,0.0,1.0,98,0.00,,,0.00,Wunderground v.1.15,2013-06-07 04:58:00,
2013-06-07 01:03:00,62.8,62.2,29.80,NNE,14,0.0,0.0,98,0.00,,,0.00,Wunderground v.1.15,2013-06-07 05:03:00,
2013-06-07 01:09:00,62.8,62.5,29.79,NNE,14,0.0,0.0,99,0.00,,,0.00,Wunderground v.1.15,2013-06-07 05:09:00,
2013-06-07 01:15:00,62.8,62.5,29.79,NNE,14,0.0,0.0,99,0.00,,,0.00,Wunderground v.1.15,2013-06-07 05:15:00,
2013-06-07 01:21:00,62.8,62.5,29.79,NNE,14,0.0,0.0,99,0.00,,,0.00,Wunderground v.1.15,2013-06-07 05:21:00,
2013-06-07 01:26:00,62.8,62.5,29.78,NNE,14,0.0,0.0,99,0.00,,,0.00,Wunderground v.1.15,2013-06-07 05:26:00,
2013-06-07 01:32:00,62.8,62.2,29.78,NNE,14,0.0,3.0,98,0.00,,,0.00,Wunderground v.1.15,2013-06-07 05:32:00,
2013-06-07 01:38:00,62.8,62.2,29.78,NNE,14,0.0,3.0,98,0.00,,,0.00,Wunderground v.1.15,2013-06-07 05:38:00,
2013-06-07 01:44:00,62.9,62.6,29.78,NNE,14,0.0,3.0,99,0.00,,,0.00,Wunderground v.1.15,2013-06-07 05:44:00,
2013-06-07 01:50:00,62.9,62.6,29.78,NNE,14,0.0,3.0,99,0.00,,,0.00,Wunderground v.1.15,2013-06-07 05:50:00,
2013-06-07 01:56:00,62.9,62.6,29.78,NNE,14,0.0,3.0,99,0.00,,,0.00,Wunderground v.1.15,2013-06-07 05:56:00,
2013-06-07 02:02:00,62.9,62.6,29.77,NNE,14,0.0,0.0,99,0.00,,,0.00,Wunderground v.1.15,2013-06-07 06:02:00,
2013-06-07 02:08:00,62.9,62.6,29.77,NNE,14,0.0,0.0,99,0.00,,,0.00,Wunderground v.1.15,2013-06-07 06:08:00,
2013-06-07 02:14:00,62.9,62.3,29.77,NNE,14,0.0,0.0,98,0.00,,,0.00,Wunderground v.1.15,2013-06-07 06:14:00,
2013-06-07 02:19:00,62.9,62.3,29.77,NNE,14,0.0,0.0,98,0.00,,,0.00,Wunderground v.1.15,2013-06-07 06:19:00,
2013-06-07 02:24:00,62.9,62.6,29.77,NNE,14,0.0,0.0,99,0.00,,,0.00,Wunderground v.1.15,2013-06-07 06:24:00,
2013-06-07 02:30:00,62.9,62.6,29.77,NNE,14,0.0,0.0,99,0.00,,,0.00,Wunderground v.1.15,2013-06-07 06:30:00,
2013-06-07 02:36:00,62.9,62.3,29.77,NNE,14,0.0,0.0,98,0.00,,,0.00,Wunderground v.1.15,2013-06-07 06:36:00,
2013-06-07 02:42:00,62.8,62.2,29.77,NNE,14,0.0,0.0,98,0.00,,,0.00,Wunderground v.1.15,2013-06-07 06:42:00,
2013-06-07 02:48:00,62.9,62.3,29.77,NNE,14,0.0,0.0,98,0.00,,,0.00,Wunderground v.1.15,2013-06-07 06:48:00,
2013-06-07 02:53:00,62.8,62.2,29.77,NNE,14,0.0,0.0,98,0.00,,,0.00,Wunderground v.1.15,2013-06-07 06:53:00,
2013-06-07 02:59:00,62.9,62.3,29.77,NNE,14,0.0,0.0,98,0.00,,,0.00,Wunderground v.1.15,2013-06-07 06:59:00,
2013-06-07 03:05:00,62.8,62.2,29.77,NNE,14,0.0,0.0,98,0.00,,,0.00,Wunderground v.1.15,2013-06-07 07:05:00,
2013-06-07 03:10:00,62.9,62.3,29.77,NNE,14,0.0,0.0,98,0.00,,,0.00,Wunderground v.1.15,2013-06-07 07:10:00,
2013-06-07 03:15:00,62.9,62.3,29.76,NNE,14,0.0,0.0,98,0.00,,,0.00,Wunderground v.1.15,2013-06-07 07:15:00,
2013-06-07 03:21:00,62.9,62.6,29.76,NNE,14,0.0,0.0,99,0.00,,,0.00,Wunderground v.1.15,2013-06-07 07:21:00,
2013-06-07 03:27:00,62.9,62.6,29.76,NNE,14,0.0,1.0,99,0.00,,,0.00,Wunderground v.1.15,2013-06-07 07:27:00,
2013-06-07 03:32:00,62.9,62.6,29.76,NNE,14,0.0,1.0,99,0.00,,,0.00,Wunderground v.1.15,2013-06-07 07:32:00,
2013-06-07 03:38:00,62.9,62.6,29.76,NNE,14,0.0,1.0,99,0.00,,,0.00,Wunderground v.1.15,2013-06-07 07:38:00,
2013-06-07 03:43:00,62.9,62.6,29.76,NNE,14,0.0,1.0,99,0.00,,,0.00,Wunderground v.1.15,2013-06-07 07:43:00,
2013-06-07 03:48:00,62.8,62.5,29.76,NNE,14,0.0,2.0,99,0.00,,,0.00,Wunderground v.1.15,2013-06-07 07:48:00,
2013-06-07 03:54:00,62.8,62.5,29.76,NNE,14,0.0,2.0,99,0.00,,,0.00,Wunderground v.1.15,2013-06-07 07:54:00,
2013-06-07 04:00:00,62.8,62.5,29.76,NNE,14,0.0,0.0,99,0.00,,,0.00,Wunderground v.1.15,2013-06-07 08:00:00,
2013-06-07 04:06:00,62.8,62.5,29.76,NNE,14,0.0,0.0,99,0.00,,,0.00,Wunderground v.1.15,2013-06-07 08:06:00,
2013-06-07 04:12:00,62.8,62.5,29.75,NNE,14,0.0,0.0,99,0.00,,,0.00,Wunderground v.1.15,2013-06-07 08:12:00,
2013-06-07 04:18:00,62.8,62.5,29.75,NNE,14,0.0,0.0,99,0.00,,,0.00,Wunderground v.1.15,2013-06-07 08:18:00,
2013-06-07 04:24:00,62.8,62.5,29.75,NNE,14,0.0,0.0,99,0.00,,,0.00,Wunderground v.1.15,2013-06-07 08:24:00,
2013-06-07 04:30:00,62.8,62.5,29.75,NNE,14,0.0,3.0,99,0.00,,,0.00,Wunderground v.1.15,2013-06-07 08:30:00,
2013-06-07 04:35:00,62.8,62.5,29.75,NNE,14,0.0,3.0,99,0.00,,,0.00,Wunderground v.1.15,2013-06-07 08:35:00,
2013-06-07 04:40:00,62.8,62.5,29.75,NNE,14,0.0,3.0,99,0.00,,,0.00,Wunderground v.1.15,2013-06-07 08:40:00,
2013-06-07 04:46:00,62.8,62.5,29.75,NNE,14,0.0,3.0,99,0.00,,,0.00,Wunderground v.1.15,2013-06-07 08:46:00,
2013-06-07 04:52:00,62.8,62.5,29.75,NNE,14,0.0,3.0,99,0.00,,,0.00,Wunderground v.1.15,2013-06-07 08:52:00,
2013-06-07 04:58:00,62.8,62.5,29.75,NNE,14,0.0,0.0,99,0.00,,,0.00,Wunderground v.1.15,2013-06-07 08:58:00,
2013-06-07 05:04:00,62.7,62.4,29.75,NNE,14,0.0,0.0,99,0.00,,,0.00,Wunderground v.1.15,2013-06-07 09:04:00,
2013-06-07 05:10:00,62.8,62.5,29.75,NNE,14,0.0,0.0,99,0.00,,,0.00,Wunderground v.1.15,2013-06-07 09:10:00,
2013-06-07 05:15:00,62.8,62.5,29.75,NNE,14,0.0,0.0,99,0.00,,,0.00,Wunderground v.1.15,2013-06-07 09:15:00,
2013-06-07 05:21:00,62.8,62.5,29.75,NNE,14,0.0,0.0,99,0.00,,,0.00,Wunderground v.1.15,2013-06-07 09:21:00,
2013-06-07 05:27:00,62.7,62.4,29.75,NNE,14,0.0,0.0,99,0.00,,,0.00,Wunderground v.1.15,2013-06-07 09:27:00,
2013-06-07 05:33:00,62.8,62.5,29.75,NNE,14,0.0,0.0,99,0.00,,,0.00,Wunderground v.1.15,2013-06-07 09:33:00,
2013-06-07 05:38:00,62.8,62.5,29.75,NNE,14,0.0,0.0,99,0.00,,,0.00,Wunderground v.1.15,2013-06-07 09:38:00,
2013-06-07 05:44:00,62.8,62.5,29.75,NNE,14,0.0,0.0,99,0.00,,,0.00,Wunderground v.1.15,2013-06-07 09:44:00,
2013-06-07 05:50:00,62.8,62.5,29.75,NNE,14,0.0,0.0,99,0.00,,,0.00,Wunderground v.1.15,2013-06-07 09:50:00,
2013-06-07 05:56:00,62.8,62.5,29.75,NNE,14,0.0,0.0,99,0.00,,,0.00,Wunderground v.1.15,2013-06-07 09:56:00,
2013-06-07 06:02:00,62.8,62.5,29.75,NNE,14,0.0,0.0,99,0.00,,,0.00,Wunderground v.1.15,2013-06-07 10:02:00,
2013-06-07 06:08:00,62.8,62.5,29.75,NNE,14,0.0,0.0,99,0.00,,,0.00,Wunderground v.1.15,2013-06-07 10:08:00,
2013-06-07 06:13:00,62.8,62.5,29.75,NNE,14,0.0,0.0,99,0.00,,,0.00,Wunderground v.1.15,2013-06-07 10:13:00,
2013-06-07 06:19:00,62.8,62.5,29.76,WSW,245,0.0,0.0,99,0.00,,,0.00,Wunderground v.1.15,2013-06-07 10:19:00,
2013-06-07 06:25:00,62.8,62.5,29.76,WSW,245,0.0,0.0,99,0.00,,,0.00,Wunderground v.1.15,2013-06-07 10:25:00,
2013-06-07 06:31:00,62.8,62.5,29.76,NNE,15,0.0,0.0,99,0.00,,,0.00,Wunderground v.1.15,2013-06-07 10:31:00,
2013-06-07 06:36:00,62.8,62.5,29.76,NNE,15,0.0,0.0,99,0.00,,,0.00,Wunderground v.1.15,2013-06-07 10:36:00,
2013-06-07 06:42:00,62.9,62.6,29.76,NNE,15,0.0,0.0,99,0.00,,,0.00,Wunderground v.1.15,2013-06-07 10:42:00,
2013-06-07 06:48:00,62.9,62.6,29.76,NNE,15,0.0,0.0,99,0.00,,,0.00,Wunderground v.1.15,2013-06-07 10:48:00,
2013-06-07 06:54:00,62.9,62.6,29.76,ENE,74,0.0,0.0,99,0.00,,,0.00,Wunderground v.1.15,2013-06-07 10:54:00,
2013-06-07 07:00:00,63.0,62.7,29.76,SE,136,0.0,0.0,99,0.00,,,0.00,Wunderground v.1.15,2013-06-07 11:00:00,
2013-06-07 07:05:00,63.0,62.7,29.76,ESE,108,0.0,0.0,99,0.00,,,0.01,Wunderground v.1.15,2013-06-07 11:05:00,
2013-06-07 07:10:00,63.0,62.7,29.75,ESE,105,0.0,0.0,99,0.00,,,0.01,Wunderground v.1.15,2013-06-07 11:10:00,
2013-06-07 07:16:00,63.1,62.8,29.75,ESE,105,0.0,0.0,99,0.00,,,0.01,Wunderground v.1.15,2013-06-07 11:16:00,
2013-06-07 07:22:00,63.2,62.9,29.75,ESE,105,0.0,1.0,99,0.00,,,0.01,Wunderground v.1.15,2013-06-07 11:22:00,
2013-06-07 07:28:00,63.2,62.9,29.75,East,98,0.0,0.0,99,0.00,,,0.01,Wunderground v.1.15,2013-06-07 11:28:00,
2013-06-07 07:33:00,63.2,62.9,29.75,ENE,76,0.0,2.0,99,0.00,,,0.01,Wunderground v.1.15,2013-06-07 11:33:00,
2013-06-07 07:38:00,63.2,62.9,29.75,NNE,32,1.0,5.0,99,0.00,,,0.02,Wunderground v.1.15,2013-06-07 11:38:00,
2013-06-07 07:43:00,63.1,62.8,29.75,NNE,30,2.0,5.0,99,0.00,,,0.02,Wunderground v.1.15,2013-06-07 11:43:00,
2013-06-07 07:49:00,63.1,62.8,29.75,NE,46,2.0,3.0,99,0.05,,,0.03,Wunderground v.1.15,2013-06-07 11:49:00,
2013-06-07 07:55:00,63.0,62.7,29.75,NE,46,2.0,4.0,99,0.05,,,0.03,Wunderground v.1.15,2013-06-07 11:55:00,
2013-06-07 08:01:00,62.9,62.6,29.75,NE,51,3.0,4.0,99,0.05,,,0.04,Wunderground v.1.15,2013-06-07 12:01:00,
2013-06-07 08:06:00,62.9,62.6,29.75,NE,49,4.0,5.0,99,0.05,,,0.04,Wunderground v.1.15,2013-06-07 12:06:00,
2013-06-07 08:12:00,63.0,62.7,29.75,NE,49,3.0,6.0,99,0.05,,,0.04,Wunderground v.1.15,2013-06-07 12:12:00,
2013-06-07 08:17:00,62.9,62.6,29.74,NE,46,4.0,6.0,99,0.00,,,0.04,Wunderground v.1.15,2013-06-07 12:17:00,
2013-06-07 08:23:00,63.0,62.7,29.75,North,10,4.0,6.0,99,0.00,,,0.05,Wunderground v.1.15,2013-06-07 12:23:00,
2013-06-07 08:29:00,63.0,62.7,29.75,NE,37,3.0,5.0,99,0.00,,,0.05,Wunderground v.1.15,2013-06-07 12:29:00,
2013-06-07 08:34:00,63.0,62.7,29.75,NE,54,3.0,6.0,99,0.00,,,0.05,Wunderground v.1.15,2013-06-07 12:34:00,
2013-06-07 08:39:00,63.0,62.7,29.75,North,349,4.0,6.0,99,0.00,,,0.05,Wunderground v.1.15,2013-06-07 12:39:00,
2013-06-07 08:45:00,63.1,62.8,29.74,NE,44,4.0,6.0,99,0.00,,,0.05,Wunderground v.1.15,2013-06-07 12:45:00,
2013-06-07 08:51:00,63.1,62.8,29.74,NE,50,4.0,5.0,99,0.00,,,0.05,Wunderground v.1.15,2013-06-07 12:51:00,
2013-06-07 08:56:00,63.1,62.8,29.74,ENE,68,4.0,6.0,99,0.00,,,0.05,Wunderground v.1.15,2013-06-07 12:56:00,
2013-06-07 09:02:00,63.2,62.9,29.74,NNE,30,3.0,4.0,99,0.00,,,0.05,Wunderground v.1.15,2013-06-07 13:02:00,
2013-06-07 09:07:00,63.3,63.0,29.74,NNE,30,3.0,3.0,99,0.00,,,0.05,Wunderground v.1.15,2013-06-07 13:07:00,
2013-06-07 09:13:00,63.4,63.1,29.73,NE,44,3.0,5.0,99,0.00,,,0.05,Wunderground v.1.15,2013-06-07 13:13:00,
2013-06-07 09:19:00,63.4,63.1,29.73,NNE,32,4.0,4.0,99,0.00,,,0.06,Wunderground v.1.15,2013-06-07 13:19:00,
2013-06-07 09:24:00,63.4,63.1,29.73,WNW,300,4.0,6.0,99,0.00,,,0.06,Wunderground v.1.15,2013-06-07 13:24:00,
2013-06-07 09:30:00,63.5,63.2,29.73,NE,51,4.0,9.0,99,0.00,,,0.06,Wunderground v.1.15,2013-06-07 13:30:00,
2013-06-07 09:36:00,63.5,63.2,29.73,NE,46,4.0,9.0,99,0.00,,,0.06,Wunderground v.1.15,2013-06-07 13:36:00,
2013-06-07 09:41:00,63.4,63.1,29.73,NNE,32,4.0,9.0,99,0.00,,,0.06,Wunderground v.1.15,2013-06-07 13:41:00,
2013-06-07 09:47:00,63.5,63.2,29.72,NE,40,4.0,4.0,99,0.00,,,0.06,Wunderground v.1.15,2013-06-07 13:47:00,
2013-06-07 09:53:00,63.5,63.2,29.73,NE,55,4.0,9.0,99,0.00,,,0.06,Wunderground v.1.15,2013-06-07 13:53:00,
2013-06-07 09:59:00,63.5,63.2,29.73,ENE,58,4.0,5.0,99,0.00,,,0.06,Wunderground v.1.15,2013-06-07 13:59:00,
2013-06-07 10:05:00,63.5,63.2,29.73,NNE,26,4.0,6.0,99,0.00,,,0.06,Wunderground v.1.15,2013-06-07 14:05:00,
2013-06-07 10:10:00,63.5,63.2,29.72,NNE,18,4.0,6.0,99,0.00,,,0.06,Wunderground v.1.15,2013-06-07 14:10:00,
2013-06-07 10:16:00,63.6,63.3,29.72,NE,38,4.0,6.0,99,0.00,,,0.06,Wunderground v.1.15,2013-06-07 14:16:00,
2013-06-07 10:22:00,63.6,63.3,29.72,North,10,4.0,5.0,99,0.00,,,0.06,Wunderground v.1.15,2013-06-07 14:22:00,
2013-06-07 10:28:00,63.8,63.5,29.72,NE,42,4.0,9.0,99,0.00,,,0.06,Wunderground v.1.15,2013-06-07 14:28:00,
2013-06-07 10:34:00,63.9,63.6,29.72,NE,52,4.0,9.0,99,0.00,,,0.06,Wunderground v.1.15,2013-06-07 14:34:00,
2013-06-07 10:40:00,64.0,63.7,29.72,NE,53,3.0,9.0,99,0.00,,,0.06,Wunderground v.1.15,2013-06-07 14:40:00,
2013-06-07 10:45:00,64.0,63.7,29.72,NE,51,2.0,9.0,99,0.00,,,0.06,Wunderground v.1.15,2013-06-07 14:45:00,
2013-06-07 10:50:00,64.0,63.7,29.72,North,10,1.0,9.0,99,0.00,,,0.07,Wunderground v.1.15,2013-06-07 14:50:00,
2013-06-07 10:56:00,63.9,63.6,29.71,ENE,65,1.0,9.0,99,0.15,,,0.09,Wunderground v.1.15,2013-06-07 14:56:00,
2013-06-07 11:02:00,63.8,63.5,29.71,NE,43,3.0,5.0,99,0.13,,,0.10,Wunderground v.1.15,2013-06-07 15:02:00,
2013-06-07 11:08:00,63.9,63.6,29.72,NE,36,3.0,6.0,99,0.18,,,0.12,Wunderground v.1.15,2013-06-07 15:08:00,
2013-06-07 11:14:00,63.9,63.6,29.71,NE,34,3.0,6.0,99,0.15,,,0.13,Wunderground v.1.15,2013-06-07 15:14:00,
2013-06-07 11:20:00,63.9,63.6,29.71,NE,48,5.0,6.0,99,0.18,,,0.15,Wunderground v.1.15,2013-06-07 15:20:00,
2013-06-07 11:25:00,64.0,63.7,29.71,NE,46,5.0,6.0,99,0.16,,,0.17,Wunderground v.1.15,2013-06-07 15:25:00,
2013-06-07 11:31:00,64.0,63.7,29.71,NE,51,6.0,9.0,99,0.32,,,0.19,Wunderground v.1.15,2013-06-07 15:31:00,
2013-06-07 11:37:00,64.1,63.8,29.71,NE,48,6.0,6.0,99,0.37,,,0.23,Wunderground v.1.15,2013-06-07 15:37:00,
2013-06-07 11:42:00,64.2,63.9,29.71,North,11,5.0,9.0,99,0.26,,,0.25,Wunderground v.1.15,2013-06-07 15:42:00,
2013-06-07 11:48:00,64.3,64.0,29.71,NE,36,4.0,5.0,99,0.07,,,0.25,Wunderground v.1.15,2013-06-07 15:48:00,
2013-06-07 11:53:00,64.4,64.1,29.70,NE,36,4.0,9.0,99,0.04,,,0.25,Wunderground v.1.15,2013-06-07 15:53:00,
2013-06-07 11:59:00,64.4,64.1,29.70,NE,42,5.0,7.0,99,0.04,,,0.26,Wunderground v.1.15,2013-06-07 15:59:00,
2013-06-07 12:05:00,64.4,64.1,29.70,NNE,33,6.0,10.0,99,0.04,,,0.26,Wunderground v.1.15,2013-06-07 16:05:00,
2013-06-07 12:11:00,64.3,64.0,29.70,NNW,333,8.0,11.0,99,0.04,,,0.26,Wunderground v.1.15,2013-06-07 16:11:00,
2013-06-07 12:17:00,64.3,64.0,29.70,NNE,26,7.0,7.0,99,0.00,,,0.26,Wunderground v.1.15,2013-06-07 16:17:00,
2013-06-07 12:22:00,64.3,64.0,29.70,NE,38,7.0,10.0,99,0.00,,,0.26,Wunderground v.1.15,2013-06-07 16:22:00,
2013-06-07 12:28:00,64.2,63.9,29.70,NE,46,8.0,12.0,99,0.00,,,0.26,Wunderground v.1.15,2013-06-07 16:28:00,
2013-06-07 12:34:00,64.4,64.1,29.69,NNE,30,7.0,12.0,99,0.00,,,0.26,Wunderground v.1.15,2013-06-07 16:34:00,
2013-06-07 12:39:00,64.3,64.0,29.69,NE,40,8.0,12.0,99,0.00,,,0.27,Wunderground v.1.15,2013-06-07 16:39:00,
2013-06-07 12:45:00,64.4,64.1,29.69,NE,36,8.0,12.0,99,0.09,,,0.28,Wunderground v.1.15,2013-06-07 16:45:00,
2013-06-07 12:50:00,64.3,64.0,29.69,NNE,32,6.0,12.0,99,0.07,,,0.28,Wunderground v.1.15,2013-06-07 16:50:00,
2013-06-07 12:56:00,64.3,64.0,29.69,NE,37,6.0,12.0,99,0.04,,,0.28,Wunderground v.1.15,2013-06-07 16:56:00,
2013-06-07 13:02:00,64.5,64.2,29.69,East,87,7.0,9.0,99,0.04,,,0.29,Wunderground v.1.15,2013-06-07 17:02:00,
2013-06-07 13:07:00,64.5,64.2,29.69,NE,39,7.0,7.0,99,0.04,,,0.29,Wunderground v.1.15,2013-06-07 17:07:00,
2013-06-07 13:13:00,64.5,64.2,29.69,North,9,7.0,11.0,99,0.04,,,0.29,Wunderground v.1.15,2013-06-07 17:13:00,
2013-06-07 13:19:00,64.6,64.3,29.68,ENE,58,7.0,9.0,99,0.00,,,0.29,Wunderground v.1.15,2013-06-07 17:19:00,
2013-06-07 13:24:00,64.6,64.3,29.68,NE,49,7.0,10.0,99,0.00,,,0.29,Wunderground v.1.15,2013-06-07 17:24:00,
2013-06-07 13:29:00,64.7,64.4,29.68,NE,36,6.0,14.0,99,0.00,,,0.29,Wunderground v.1.15,2013-06-07 17:29:00,
2013-06-07 13:34:00,64.6,64.3,29.68,ENE,60,5.0,14.0,99,0.00,,,0.29,Wunderground v.1.15,2013-06-07 17:34:00,
2013-06-07 13:40:00,64.6,64.3,29.68,NE,48,5.0,14.0,99,0.00,,,0.29,Wunderground v.1.15,2013-06-07 17:40:00,
2013-06-07 13:46:00,64.8,64.5,29.68,NE,49,6.0,14.0,99,0.00,,,0.29,Wunderground v.1.15,2013-06-07 17:46:00,
2013-06-07 13:52:00,64.9,64.6,29.67,NE,54,7.0,14.0,99,0.00,,,0.29,Wunderground v.1.15,2013-06-07 17:52:00,
2013-06-07 13:57:00,65.0,64.7,29.67,NE,46,8.0,8.0,99,0.00,,,0.29,Wunderground v.1.15,2013-06-07 17:57:00,
2013-06-07 14:03:00,65.2,64.9,29.67,ENE,67,6.0,8.0,99,0.00,,,0.29,Wunderground v.1.15,2013-06-07 18:03:00,
2013-06-07 14:13:00,64.9,64.6,29.67,NE,45,7.0,12.0,99,0.00,,,0.30,Wunderground v.1.15,2013-06-07 18:13:00,
2013-06-07 14:19:00,65.0,64.7,29.67,ENE,59,7.0,7.0,99,0.00,,,0.30,Wunderground v.1.15,2013-06-07 18:19:00,
2013-06-07 14:24:00,65.1,64.8,29.66,ENE,59,6.0,9.0,99,0.00,,,0.30,Wunderground v.1.15,2013-06-07 18:24:00,
2013-06-07 14:31:00,65.3,65.0,29.66,ENE,60,7.0,12.0,99,0.00,,,0.30,Wunderground v.1.15,2013-06-07 18:31:00,
2013-06-07 14:37:00,65.3,65.0,29.66,NE,42,8.0,12.0,99,0.00,,,0.30,Wunderground v.1.15,2013-06-07 18:37:00,
2013-06-07 14:43:00,65.3,65.0,29.66,NE,53,8.0,12.0,99,0.00,,,0.30,Wunderground v.1.15,2013-06-07 18:43:00,
2013-06-07 14:49:00,65.3,65.0,29.65,NE,46,8.0,12.0,99,0.00,,,0.30,Wunderground v.1.15,2013-06-07 18:49:00,
2013-06-07 14:55:00,65.3,64.7,29.65,ENE,71,8.0,12.0,98,0.00,,,0.31,Wunderground v.1.15,2013-06-07 18:55:00,
2013-06-07 15:00:00,65.2,64.6,29.65,NE,48,8.0,11.0,98,0.00,,,0.31,Wunderground v.1.15,2013-06-07 19:00:00,
2013-06-07 15:07:00,65.5,65.2,29.65,NE,51,8.0,9.0,99,0.00,,,0.31,Wunderground v.1.15,2013-06-07 19:07:00,
2013-06-07 15:13:00,65.5,65.2,29.65,NE,36,8.0,14.0,99,0.00,,,0.31,Wunderground v.1.15,2013-06-07 19:13:00,
2013-06-07 15:18:00,65.9,65.6,29.65,ENE,65,7.0,8.0,99,0.00,,,0.31,Wunderground v.1.15,2013-06-07 19:18:00,
2013-06-07 15:24:00,65.6,65.0,29.65,NE,40,6.0,12.0,98,0.00,,,0.31,Wunderground v.1.15,2013-06-07 19:24:00,
2013-06-07 15:29:00,65.6,65.0,29.65,NE,56,6.0,14.0,98,0.00,,,0.31,Wunderground v.1.15,2013-06-07 19:29:00,
2013-06-07 15:35:00,65.7,65.1,29.64,ENE,59,5.0,14.0,98,0.00,,,0.31,Wunderground v.1.15,2013-06-07 19:35:00,
2013-06-07 15:41:00,65.8,65.2,29.65,NE,46,5.0,14.0,98,0.00,,,0.31,Wunderground v.1.15,2013-06-07 19:41:00,
2013-06-07 15:46:00,65.8,65.2,29.64,ENE,61,5.0,5.0,98,0.00,,,0.31,Wunderground v.1.15,2013-06-07 19:46:00,
2013-06-07 15:51:00,65.9,65.3,29.64,NE,46,5.0,14.0,98,0.00,,,0.31,Wunderground v.1.15,2013-06-07 19:51:00,
2013-06-07 15:56:00,66.1,65.5,29.64,NNE,30,5.0,5.0,98,0.00,,,0.31,Wunderground v.1.15,2013-06-07 19:56:00,
2013-06-07 16:02:00,66.3,65.7,29.63,NNE,24,6.0,10.0,98,0.00,,,0.31,Wunderground v.1.15,2013-06-07 20:02:00,
2013-06-07 16:09:00,66.3,65.4,29.63,NNE,15,7.0,8.0,97,0.00,,,0.31,Wunderground v.1.15,2013-06-07 20:09:00,
2013-06-07 16:15:00,66.4,65.5,29.63,NE,51,7.0,8.0,97,0.00,,,0.31,Wunderground v.1.15,2013-06-07 20:15:00,
2013-06-07 16:21:00,66.3,65.1,29.64,ENE,59,6.0,10.0,96,0.00,,,0.31,Wunderground v.1.15,2013-06-07 20:21:00,
2013-06-07 16:27:00,66.4,65.5,29.63,NNE,33,6.0,7.0,97,0.00,,,0.31,Wunderground v.1.15,2013-06-07 20:27:00,
2013-06-07 16:32:00,66.3,65.1,29.63,NE,43,8.0,14.0,96,0.00,,,0.31,Wunderground v.1.15,2013-06-07 20:32:00,
2013-06-07 16:38:00,66.3,65.1,29.63,NE,40,10.0,14.0,96,0.00,,,0.31,Wunderground v.1.15,2013-06-07 20:38:00,
2013-06-07 16:43:00,66.4,65.2,29.63,NNE,33,9.0,14.0,96,0.00,,,0.31,Wunderground v.1.15,2013-06-07 20:43:00,
2013-06-07 16:49:00,66.5,65.3,29.63,NE,46,7.0,14.0,96,0.00,,,0.31,Wunderground v.1.15,2013-06-07 20:49:00,
2013-06-07 16:54:00,66.4,65.2,29.63,ENE,62,6.0,14.0,96,0.00,,,0.31,Wunderground v.1.15,2013-06-07 20:54:00,
2013-06-07 17:00:00,66.3,64.8,29.63,ENE,59,5.0,7.0,95,0.00,,,0.31,Wunderground v.1.15,2013-06-07 21:00:00,
2013-06-07 17:06:00,66.2,65.0,29.63,ENE,63,5.0,7.0,96,0.00,,,0.31,Wunderground v.1.15,2013-06-07 21:06:00,
2013-06-07 17:11:00,66.1,64.6,29.63,NNE,16,3.0,7.0,95,0.00,,,0.31,Wunderground v.1.15,2013-06-07 21:11:00,
2013-06-07 17:17:00,66.0,64.8,29.62,NE,40,5.0,5.0,96,0.00,,,0.31,Wunderground v.1.15,2013-06-07 21:17:00,
2013-06-07 17:23:00,65.9,64.7,29.62,North,360,6.0,8.0,96,0.00,,,0.31,Wunderground v.1.15,2013-06-07 21:23:00,
2013-06-07 17:28:00,65.9,64.7,29.62,NE,34,5.0,13.0,96,0.00,,,0.31,Wunderground v.1.15,2013-06-07 21:28:00,
2013-06-07 17:34:00,65.8,64.6,29.62,NE,49,4.0,13.0,96,0.00,,,0.31,Wunderground v.1.15,2013-06-07 21:34:00,
2013-06-07 17:42:00,65.8,64.9,29.62,NE,40,4.0,13.0,97,0.00,,,0.31,Wunderground v.1.15,2013-06-07 21:42:00,
2013-06-07 17:49:00,65.8,64.9,29.63,NNE,31,3.0,13.0,97,0.00,,,0.31,Wunderground v.1.15,2013-06-07 21:49:00,
2013-06-07 17:55:00,65.8,64.9,29.62,NE,46,4.0,13.0,97,0.00,,,0.31,Wunderground v.1.15,2013-06-07 21:55:00,
2013-06-07 18:01:00,65.9,65.0,29.62,North,5,3.0,5.0,97,0.00,,,0.31,Wunderground v.1.15,2013-06-07 22:01:00,
2013-06-07 18:06:00,65.9,65.0,29.62,NE,51,3.0,5.0,97,0.00,,,0.31,Wunderground v.1.15,2013-06-07 22:06:00,
2013-06-07 18:14:00,66.0,65.1,29.62,NNE,32,3.0,5.0,97,0.00,,,0.31,Wunderground v.1.15,2013-06-07 22:14:00,
2013-06-07 18:19:00,66.1,65.5,29.62,NNE,14,3.0,4.0,98,0.00,,,0.31,Wunderground v.1.15,2013-06-07 22:19:00,
2013-06-07 18:25:00,66.2,65.6,29.62,NE,41,3.0,4.0,98,0.00,,,0.31,Wunderground v.1.15,2013-06-07 22:25:00,
2013-06-07 18:30:00,66.3,65.4,29.62,NE,51,3.0,12.0,97,0.00,,,0.31,Wunderground v.1.15,2013-06-07 22:30:00,
2013-06-07 18:36:00,66.4,65.5,29.62,NE,41,4.0,12.0,97,0.00,,,0.31,Wunderground v.1.15,2013-06-07 22:36:00,
2013-06-07 18:41:00,66.4,65.5,29.62,NE,35,3.0,12.0,97,0.00,,,0.31,Wunderground v.1.15,2013-06-07 22:41:00,
2013-06-07 18:47:00,66.5,65.6,29.63,NNE,32,2.0,12.0,97,0.00,,,0.31,Wunderground v.1.15,2013-06-07 22:47:00,
2013-06-07 18:52:00,66.5,65.6,29.63,NNE,22,4.0,12.0,97,0.00,,,0.31,Wunderground v.1.15,2013-06-07 22:52:00,
2013-06-07 18:58:00,66.5,65.3,29.63,NE,43,4.0,6.0,96,0.00,,,0.31,Wunderground v.1.15,2013-06-07 22:58:00,
2013-06-07 19:04:00,66.6,65.4,29.63,NNE,32,3.0,6.0,96,0.00,,,0.31,Wunderground v.1.15,2013-06-07 23:04:00,
2013-06-07 19:10:00,66.7,65.5,29.64,NNE,24,2.0,3.0,96,0.00,,,0.31,Wunderground v.1.15,2013-06-07 23:10:00,
2013-06-07 19:16:00,66.7,65.2,29.64,NNE,23,1.0,4.0,95,0.00,,,0.31,Wunderground v.1.15,2013-06-07 23:16:00,
2013-06-07 19:21:00,66.8,65.3,29.65,NE,49,1.0,3.0,95,0.00,,,0.31,Wunderground v.1.15,2013-06-07 23:21:00,
2013-06-07 19:27:00,66.8,65.3,29.65,NE,38,2.0,7.0,95,0.00,,,0.31,Wunderground v.1.15,2013-06-07 23:27:00,
2013-06-07 19:33:00,66.8,65.3,29.65,NE,40,1.0,7.0,95,0.00,,,0.31,Wunderground v.1.15,2013-06-07 23:33:00,
2013-06-07 19:38:00,66.8,65.0,29.65,NE,40,1.0,7.0,94,0.00,,,0.31,Wunderground v.1.15,2013-06-07 23:38:00,
2013-06-07 19:44:00,66.8,65.0,29.65,NE,48,2.0,7.0,94,0.00,,,0.31,Wunderground v.1.15,2013-06-07 23:44:00,
2013-06-07 19:50:00,66.8,65.0,29.65,NW,317,1.0,7.0,94,0.00,,,0.31,Wunderground v.1.15,2013-06-07 23:50:00,
2013-06-07 19:55:00,66.8,65.0,29.66,West,263,0.0,7.0,94,0.00,,,0.31,Wunderground v.1.15,2013-06-07 23:55:00,
2013-06-07 20:01:00,66.7,64.9,29.66,SE,134,0.0,0.0,94,0.00,,,0.31,Wunderground v.1.15,2013-06-08 00:01:00,
2013-06-07 20:07:00,66.6,64.8,29.67,North,5,0.0,0.0,94,0.00,,,0.31,Wunderground v.1.15,2013-06-08 00:07:00,
2013-06-07 20:13:00,66.5,64.7,29.67,NNE,15,1.0,1.0,94,0.00,,,0.31,Wunderground v.1.15,2013-06-08 00:13:00,
2013-06-07 20:19:00,66.5,64.7,29.67,NNE,15,0.0,1.0,94,0.00,,,0.31,Wunderground v.1.15,2013-06-08 00:19:00,
2013-06-07 20:25:00,66.5,64.7,29.67,NNE,15,0.0,1.0,94,0.00,,,0.31,Wunderground v.1.15,2013-06-08 00:25:00,
2013-06-07 20:32:00,66.4,64.6,29.67,NNE,15,0.0,5.0,94,0.00,,,0.31,Wunderground v.1.15,2013-06-08 00:32:00,
2013-06-07 20:38:00,66.4,64.6,29.67,NNE,15,0.0,5.0,94,0.00,,,0.31,Wunderground v.1.15,2013-06-08 00:38:00,
2013-06-07 20:44:00,66.4,64.6,29.67,NE,51,0.0,5.0,94,0.00,,,0.31,Wunderground v.1.15,2013-06-08 00:44:00,
2013-06-07 20:50:00,66.4,64.6,29.67,NE,51,0.0,5.0,94,0.00,,,0.31,Wunderground v.1.15,2013-06-08 00:50:00,
2013-06-07 20:55:00,66.3,64.5,29.67,NE,51,0.0,5.0,94,0.00,,,0.31,Wunderground v.1.15,2013-06-08 00:55:00,
2013-06-07 21:02:00,66.2,64.4,29.68,NE,51,0.0,0.0,94,0.00,,,0.31,Wunderground v.1.15,2013-06-08 01:02:00,
2013-06-07 21:08:00,66.1,64.6,29.69,NE,51,0.0,0.0,95,0.00,,,0.31,Wunderground v.1.15,2013-06-08 01:08:00,
2013-06-07 21:15:00,66.1,64.6,29.69,NE,51,0.0,0.0,95,0.00,,,0.31,Wunderground v.1.15,2013-06-08 01:15:00,
2013-06-07 21:20:00,66.0,64.5,29.69,NE,51,0.0,0.0,95,0.00,,,0.31,Wunderground v.1.15,2013-06-08 01:20:00,
2013-06-07 21:27:00,66.0,64.5,29.69,NE,51,0.0,0.0,95,0.00,,,0.31,Wunderground v.1.15,2013-06-08 01:27:00,
2013-06-07 21:33:00,65.9,64.4,29.69,NE,51,0.0,4.0,95,0.00,,,0.31,Wunderground v.1.15,2013-06-08 01:33:00,
2013-06-07 21:38:00,65.9,64.7,29.70,NE,51,0.0,4.0,96,0.00,,,0.31,Wunderground v.1.15,2013-06-08 01:38:00,
2013-06-07 21:44:00,65.8,64.6,29.70,NE,51,0.0,4.0,96,0.00,,,0.31,Wunderground v.1.15,2013-06-08 01:44:00,
2013-06-07 21:49:00,65.7,64.5,29.70,NE,51,0.0,4.0,96,0.00,,,0.31,Wunderground v.1.15,2013-06-08 01:49:00,
2013-06-07 21:55:00,65.7,64.5,29.70,NE,51,0.0,4.0,96,0.00,,,0.31,Wunderground v.1.15,2013-06-08 01:55:00,
2013-06-07 22:00:00,65.7,64.5,29.71,NE,51,0.0,0.0,96,0.00,,,0.31,Wunderground v.1.15,2013-06-08 02:00:00,
2013-06-07 22:08:00,65.6,64.4,29.71,NE,51,0.0,0.0,96,0.00,,,0.31,Wunderground v.1.15,2013-06-08 02:08:00,
2013-06-07 22:14:00,65.7,64.5,29.72,NE,51,0.0,0.0,96,0.00,,,0.31,Wunderground v.1.15,2013-06-08 02:14:00,
2013-06-07 22:19:00,65.7,64.8,29.72,NE,51,0.0,1.0,97,0.00,,,0.31,Wunderground v.1.15,2013-06-08 02:19:00,
2013-06-07 22:25:00,65.7,64.8,29.72,NE,51,0.0,1.0,97,0.00,,,0.31,Wunderground v.1.15,2013-06-08 02:25:00,
2013-06-07 22:32:00,65.7,64.8,29.72,NE,51,0.0,2.0,97,0.00,,,0.31,Wunderground v.1.15,2013-06-08 02:32:00,
2013-06-07 22:41:00,65.7,64.5,29.73,NE,51,0.0,1.0,96,0.00,,,0.31,Wunderground v.1.15,2013-06-08 02:41:00,
2013-06-07 22:46:00,65.7,64.5,29.73,NE,51,0.0,1.0,96,0.00,,,0.31,Wunderground v.1.15,2013-06-08 02:46:00,
2013-06-07 22:52:00,65.8,64.6,29.73,NE,51,0.0,1.0,96,0.00,,,0.31,Wunderground v.1.15,2013-06-08 02:52:00,
2013-06-07 22:57:00,65.7,64.5,29.74,NE,51,0.0,0.0,96,0.00,,,0.31,Wunderground v.1.15,2013-06-08 02:57:00,
2013-06-07 23:03:00,65.6,64.4,29.74,NE,51,0.0,0.0,96,0.00,,,0.31,Wunderground v.1.15,2013-06-08 03:03:00,
2013-06-07 23:11:00,65.5,64.3,29.74,NE,51,0.0,0.0,96,0.00,,,0.31,Wunderground v.1.15,2013-06-08 03:11:00,
2013-06-07 23:16:00,65.4,64.2,29.74,NE,51,0.0,0.0,96,0.00,,,0.31,Wunderground v.1.15,2013-06-08 03:16:00,
2013-06-07 23:22:00,65.3,64.1,29.74,NE,51,0.0,3.0,96,0.00,,,0.31,Wunderground v.1.15,2013-06-08 03:22:00,
2013-06-07 23:28:00,65.2,64.0,29.75,NE,51,0.0,3.0,96,0.00,,,0.31,Wunderground v.1.15,2013-06-08 03:28:00,
2013-06-07 23:34:00,65.0,63.8,29.74,NE,51,0.0,3.0,96,0.00,,,0.31,Wunderground v.1.15,2013-06-08 03:34:00,
2013-06-07 23:39:00,65.0,63.8,29.75,NE,51,0.0,3.0,96,0.00,,,0.31,Wunderground v.1.15,2013-06-08 03:39:00,
2013-06-07 23:45:00,64.9,63.7,29.75,NE,51,0.0,3.0,96,0.00,,,0.31,Wunderground v.1.15,2013-06-08 03:45:00,
2013-06-07 23:50:00,65.0,63.8,29.75,NE,51,0.0,3.0,96,0.00,,,0.31,Wunderground v.1.15,2013-06-08 03:50:00,
2013-06-07 23:57:00,65.0,63.5,29.75,NE,51,0.0,0.0,95,0.00,,,0.31,Wunderground v.1.15,2013-06-08 03:57:00,